| time (UTC) | temp F | wind direction | speed knots | gust knots | rain 1hr in | rain 24hr in | rain mn in | humidity % | barometer mb |
| 20260906063805 | 69 | 335 | 1.7 | 4.3 | 0.00 | 0.00 | 0.00 | 84 | 1023.3 |
| 20260906063304 | 68 | 331 | 2.6 | 4.3 | 0.00 | 0.00 | 0.00 | 85 | 1023.2 |
| 20260906062804 | 68 | 327 | 2.6 | 6.1 | 0.00 | 0.00 | 0.00 | 86 | 1023.1 |
| 20260906061805 | 67 | 320 | 1.7 | 6.1 | 0.00 | 0.00 | 0.00 | 88 | 1023.2 |
| 20260906060805 | 64 | 318 | 2.6 | 2.6 | 0.00 | 0.00 | 0.00 | 92 | 1023.1 |
| 20260906060304 | 64 | 56 | 0.0 | 2.6 | 0.00 | 0.00 | 0.00 | 93 | 1023.1 |
| 20260906055804 | 63 | 45 | 0.9 | 2.6 | 0.00 | 0.00 | 0.00 | 93 | 1023.0 |
| 20260906055306 | 63 | 94 | 0.0 | 0.0 | 0.00 | 0.00 | 0.00 | 93 | 1023.0 |
| 20260906054805 | 63 | 94 | 0.0 | 1.7 | 0.00 | 0.00 | 0.00 | 93 | 1022.9 |
| 20260906054304 | 63 | 94 | 0.0 | 2.6 | 0.00 | 0.00 | 0.00 | 93 | 1022.9 |
| 20260906052806 | 62 | 94 | 0.9 | 2.6 | 0.00 | 0.00 | 0.00 | 93 | 1022.8 |
| 20260906052306 | 62 | 94 | 0.9 | 2.6 | 0.00 | 0.00 | 0.00 | 93 | 1022.7 |
| 20260906051805 | 62 | 95 | 0.9 | 2.6 | 0.00 | 0.00 | 0.00 | 93 | 1022.8 |
| 20260906051306 | 62 | 95 | 0.0 | 2.6 | 0.00 | 0.00 | 0.00 | 93 | 1022.7 |
| 20260906050804 | 62 | 95 | 0.0 | 2.6 | 0.00 | 0.00 | 0.00 | 93 | 1022.6 |
| 20260906050305 | 62 | 95 | 0.9 | 2.6 | 0.00 | 0.00 | 0.00 | 93 | 1022.7 |
| 20260906045804 | 62 | 293 | 1.7 | 2.6 | 0.00 | 0.00 | 0.00 | 94 | 1022.6 |
| 20260906045306 | 62 | 79 | 0.0 | 2.6 | 0.00 | 0.00 | 0.00 | 93 | 1022.6 |
| 20260906044804 | 62 | 79 | 0.0 | 2.6 | 0.00 | 0.00 | 0.00 | 94 | 1022.5 |
| 20260906044305 | 62 | 79 | 0.0 | 2.6 | 0.00 | 0.00 | 0.00 | 93 | 1022.5 |
| 20260906043805 | 62 | 80 | 0.9 | 1.7 | 0.00 | 0.00 | 0.00 | 94 | 1022.5 |
| 20260906043305 | 62 | 80 | 0.0 | 1.7 | 0.00 | 0.00 | 0.00 | 93 | 1022.4 |
| 20260906042804 | 62 | 80 | 0.9 | 1.7 | 0.00 | 0.00 | 0.00 | 93 | 1022.4 |
| 20260906042306 | 62 | 80 | 0.0 | 2.6 | 0.00 | 0.00 | 0.00 | 93 | 1022.4 |
| 20260906041805 | 62 | 80 | 0.9 | 2.6 | 0.00 | 0.00 | 0.00 | 93 | 1022.3 |
| 20260906041304 | 62 | 77 | 0.9 | 1.7 | 0.00 | 0.00 | 0.00 | 93 | 1022.2 |
| 20260906040804 | 62 | 64 | 0.0 | 1.7 | 0.00 | 0.00 | 0.00 | 93 | 1022.2 |
| 20260906040305 | 62 | 50 | 0.9 | 1.7 | 0.00 | 0.00 | 0.00 | 94 | 1022.2 |
| 20260906035306 | 62 | 55 | 0.0 | 0.9 | 0.00 | 0.00 | 0.00 | 93 | 1022.1 |
| 20260906034804 | 62 | 53 | 0.0 | 1.7 | 0.00 | 0.00 | 0.00 | 93 | 1022.0 |
| 20260906034304 | 62 | 53 | 0.0 | 2.6 | 0.00 | 0.00 | 0.00 | 93 | 1021.9 |
| 20260906033805 | 62 | 53 | 0.9 | 2.6 | 0.00 | 0.00 | 0.00 | 93 | 1021.9 |
| 20260906033304 | 62 | 53 | 0.0 | 0.0 | 0.00 | 0.00 | 0.00 | 92 | 1021.9 |
| 20260906032804 | 62 | 52 | 0.0 | 0.0 | 0.00 | 0.00 | 0.00 | 93 | 1021.9 |
| 20260906032306 | 62 | 53 | 0.0 | 0.0 | 0.00 | 0.00 | 0.00 | 92 | 1021.9 |
| 20260906031805 | 62 | 56 | 0.0 | 0.9 | 0.00 | 0.00 | 0.00 | 92 | 1021.8 |
| 20260906031304 | 63 | 53 | 0.0 | 0.9 | 0.00 | 0.00 | 0.00 | 93 | 1021.8 |
| 20260906030304 | 63 | 54 | 0.0 | 0.9 | 0.00 | 0.00 | 0.00 | 92 | 1021.7 |
| 20260906025804 | 63 | 54 | 0.0 | 0.9 | 0.00 | 0.00 | 0.00 | 92 | 1021.7 |
| 20260906024804 | 63 | 53 | 0.9 | 1.7 | 0.00 | 0.00 | 0.00 | 92 | 1021.6 |
| 20260906024304 | 63 | 53 | 0.0 | 2.6 | 0.00 | 0.00 | 0.00 | 92 | 1021.6 |
| 20260906023804 | 63 | 52 | 0.9 | 2.6 | 0.00 | 0.00 | 0.00 | 93 | 1021.5 |
| 20260906023304 | 63 | 54 | 0.0 | 0.9 | 0.00 | 0.00 | 0.00 | 92 | 1021.5 |
| 20260906022804 | 63 | 54 | 0.0 | 0.9 | 0.00 | 0.00 | 0.00 | 91 | 1021.4 |
| 20260906022306 | 63 | 55 | 0.0 | 0.9 | 0.00 | 0.00 | 0.00 | 91 | 1021.4 |
| 20260906020805 | 64 | 53 | 0.0 | 1.7 | 0.00 | 0.00 | 0.00 | 91 | 1021.3 |
| 20260906020304 | 64 | 50 | 0.9 | 1.7 | 0.00 | 0.00 | 0.00 | 91 | 1021.4 |
| 20260906015804 | 64 | 311 | 0.0 | 2.6 | 0.00 | 0.00 | 0.00 | 91 | 1021.4 |
| 20260906015306 | 64 | 312 | 0.0 | 2.6 | 0.00 | 0.00 | 0.00 | 90 | 1021.3 |
| 20260906014804 | 64 | 311 | 1.7 | 2.6 | 0.00 | 0.00 | 0.00 | 90 | 1021.4 |
| 20260906014305 | 64 | 312 | 0.9 | 1.7 | 0.00 | 0.00 | 0.00 | 90 | 1021.3 |
| 20260906013804 | 64 | 313 | 0.9 | 1.7 | 0.00 | 0.00 | 0.00 | 90 | 1021.3 |
| 20260906013304 | 65 | 314 | 0.0 | 1.7 | 0.00 | 0.00 | 0.00 | 90 | 1021.4 |
| 20260906012804 | 65 | 315 | 0.9 | 1.7 | 0.00 | 0.00 | 0.00 | 90 | 1021.4 |
| 20260906012306 | 65 | 315 | 0.9 | 2.6 | 0.00 | 0.00 | 0.00 | 91 | 1021.4 |
| 20260906011804 | 65 | 315 | 0.9 | 2.6 | 0.00 | 0.00 | 0.00 | 90 | 1021.4 |
| 20260906011304 | 65 | 315 | 0.9 | 2.6 | 0.00 | 0.00 | 0.00 | 91 | 1021.3 |
| 20260906010804 | 65 | 316 | 0.0 | 1.7 | 0.00 | 0.00 | 0.00 | 90 | 1021.4 |
| 20260906010304 | 65 | 317 | 0.9 | 1.7 | 0.00 | 0.00 | 0.00 | 90 | 1021.3 |
| 20260906005804 | 65 | 318 | 0.9 | 2.6 | 0.00 | 0.00 | 0.00 | 89 | 1021.3 |
| 20260906005306 | 65 | 317 | 1.7 | 2.6 | 0.00 | 0.00 | 0.00 | 90 | 1021.1 |
| 20260906004804 | 65 | 317 | 0.0 | 1.7 | 0.00 | 0.00 | 0.00 | 90 | 1021.2 |
| 20260906004304 | 65 | 317 | 0.0 | 1.7 | 0.00 | 0.00 | 0.00 | 90 | 1021.2 |
| 20260906003304 | 65 | 318 | 0.0 | 1.7 | 0.00 | 0.00 | 0.00 | 90 | 1021.1 |
| 20260906002804 | 65 | 318 | 0.9 | 2.6 | 0.00 | 0.00 | 0.00 | 90 | 1021.1 |
| 20260906001803 | 66 | 318 | 0.9 | 2.6 | 0.00 | 0.00 | 0.00 | 89 | 1021.1 |
| 20260906001304 | 66 | 318 | 0.9 | 2.6 | 0.00 | 0.00 | 0.00 | 89 | 1021.1 |
| 20260906000804 | 66 | 317 | 0.0 | 0.9 | 0.00 | 0.00 | 0.00 | 89 | 1021.1 |
| 20260906000304 | 66 | 316 | 0.0 | 2.6 | 0.00 | 0.00 | 0.00 | 89 | 1021.1 |
| 20260905235804 | 66 | 317 | 0.9 | 2.6 | 0.00 | 0.00 | 0.00 | 89 | 1021.0 |
| 20260905234804 | 67 | 315 | 0.0 | 0.9 | 0.00 | 0.00 | 0.00 | 89 | 1020.9 |
| 20260905234304 | 67 | 313 | 0.9 | 0.9 | 0.00 | 0.00 | 0.00 | 89 | 1020.8 |
| 20260905233804 | 67 | 314 | 0.0 | 1.7 | 0.00 | 0.00 | 0.00 | 88 | 1020.9 |
| 20260905233303 | 67 | 314 | 0.9 | 1.7 | 0.00 | 0.00 | 0.00 | 88 | 1020.9 |
| 20260905232803 | 68 | 315 | 0.0 | 0.9 | 0.00 | 0.00 | 0.00 | 87 | 1020.9 |
| 20260905231804 | 68 | 319 | 0.0 | 0.9 | 0.00 | 0.00 | 0.00 | 87 | 1020.8 |
| 20260905231304 | 68 | 314 | 0.9 | 1.7 | 0.00 | 0.00 | 0.00 | 86 | 1020.8 |
| 20260905230804 | 69 | 313 | 0.0 | 1.7 | 0.00 | 0.00 | 0.00 | 86 | 1020.7 |
| 20260905230303 | 69 | 313 | 0.0 | 2.6 | 0.00 | 0.00 | 0.00 | 86 | 1020.7 |
| 20260905225817 | 69 | 313 | 0.0 | 2.6 | 0.00 | 0.00 | 0.00 | 86 | 1020.7 |
| 20260905224818 | 69 | 311 | 0.9 | 2.6 | 0.00 | 0.00 | 0.00 | 86 | 1020.5 |
| 20260905224317 | 69 | 311 | 0.0 | 2.6 | 0.00 | 0.00 | 0.00 | 86 | 1020.5 |
| 20260905223816 | 69 | 312 | 0.9 | 2.6 | 0.00 | 0.00 | 0.00 | 86 | 1020.4 |
| 20260905222316 | 69 | 268 | 0.9 | 1.7 | 0.00 | 0.00 | 0.00 | 86 | 1020.3 |
| 20260905221316 | 69 | 271 | 1.7 | 2.6 | 0.00 | 0.00 | 0.00 | 86 | 1020.3 |
| 20260905220824 | 70 | 272 | 0.0 | 1.7 | 0.00 | 0.00 | 0.00 | 86 | 1020.2 |
| 20260905220317 | 70 | 274 | 0.9 | 1.7 | 0.00 | 0.00 | 0.00 | 86 | 1020.2 |
| 20260905215816 | 70 | 274 | 0.9 | 1.7 | 0.00 | 0.00 | 0.00 | 86 | 1020.2 |
| 20260905215316 | 70 | 276 | 0.9 | 2.6 | 0.00 | 0.00 | 0.00 | 85 | 1020.2 |
| 20260905214316 | 70 | 278 | 0.9 | 1.7 | 0.00 | 0.00 | 0.00 | 84 | 1020.1 |
| 20260905213816 | 71 | 276 | 0.9 | 2.6 | 0.00 | 0.00 | 0.00 | 84 | 1020.1 |
| 20260905213317 | 71 | 276 | 0.9 | 2.6 | 0.00 | 0.00 | 0.00 | 83 | 1020.0 |
| 20260905212817 | 71 | 275 | 1.7 | 2.6 | 0.00 | 0.00 | 0.00 | 83 | 1020.1 |
| 20260905211817 | 71 | 336 | 1.7 | 2.6 | 0.00 | 0.00 | 0.00 | 83 | 1020.0 |
| 20260905211317 | 71 | 336 | 0.9 | 2.6 | 0.00 | 0.00 | 0.00 | 81 | 1020.0 |
| 20260905210816 | 71 | 336 | 0.9 | 2.6 | 0.00 | 0.00 | 0.00 | 81 | 1020.0 |
| 20260905210317 | 71 | 337 | 0.9 | 2.6 | 0.00 | 0.00 | 0.00 | 81 | 1020.0 |
| 20260905205816 | 71 | 336 | 0.9 | 2.6 | 0.00 | 0.00 | 0.00 | 81 | 1020.0 |
| 20260905204817 | 71 | 336 | 0.9 | 2.6 | 0.00 | 0.00 | 0.00 | 81 | 1019.9 |
| 20260905204316 | 71 | 336 | 0.9 | 2.6 | 0.00 | 0.00 | 0.00 | 82 | 1020.0 |
| 20260905203818 | 71 | 336 | 1.7 | 2.6 | 0.00 | 0.00 | 0.00 | 82 | 1019.9 |
| 20260905203316 | 71 | 336 | 0.9 | 2.6 | 0.00 | 0.00 | 0.00 | 81 | 1019.8 |
| 20260905202816 | 71 | 336 | 0.9 | 2.6 | 0.00 | 0.00 | 0.00 | 82 | 1019.8 |
| 20260905202317 | 71 | 336 | 0.9 | 2.6 | 0.00 | 0.00 | 0.00 | 81 | 1019.7 |
| 20260905201817 | 71 | 333 | 1.7 | 2.6 | 0.00 | 0.00 | 0.00 | 81 | 1019.7 |
| 20260905200816 | 71 | 332 | 0.9 | 2.6 | 0.00 | 0.00 | 0.00 | 82 | 1019.6 |
| 20260905200316 | 71 | 331 | 0.9 | 2.6 | 0.00 | 0.00 | 0.00 | 82 | 1019.6 |
| 20260905195816 | 71 | 331 | 1.7 | 2.6 | 0.00 | 0.00 | 0.00 | 82 | 1019.5 |
| 20260905195317 | 71 | 329 | 0.9 | 2.6 | 0.00 | 0.00 | 0.00 | 82 | 1019.4 |
| 20260905194816 | 71 | 328 | 0.9 | 2.6 | 0.00 | 0.00 | 0.00 | 81 | 1019.4 |
| 20260905194316 | 71 | 327 | 1.7 | 2.6 | 0.00 | 0.00 | 0.00 | 81 | 1019.3 |
| 20260905193816 | 71 | 327 | 0.9 | 2.6 | 0.00 | 0.00 | 0.00 | 82 | 1019.2 |
| 20260905192817 | 72 | 324 | 1.7 | 2.6 | 0.00 | 0.00 | 0.00 | 81 | 1019.1 |
| 20260905192316 | 72 | 323 | 0.9 | 2.6 | 0.00 | 0.00 | 0.00 | 80 | 1019.1 |
| 20260905191816 | 72 | 322 | 1.7 | 2.6 | 0.00 | 0.00 | 0.00 | 80 | 1018.9 |
| 20260905191316 | 72 | 333 | 2.6 | 2.6 | 0.00 | 0.00 | 0.00 | 80 | 1018.8 |
| 20260905190816 | 72 | 312 | 0.0 | 0.9 | 0.00 | 0.00 | 0.00 | 80 | 1018.8 |
| 20260905190316 | 73 | 312 | 0.0 | 0.9 | 0.00 | 0.00 | 0.00 | 79 | 1018.7 |
| 20260905185816 | 73 | 352 | 0.9 | 1.7 | 0.00 | 0.00 | 0.00 | 79 | 1018.8 |
| 20260905185316 | 73 | 290 | 0.9 | 2.6 | 0.00 | 0.00 | 0.00 | 79 | 1018.7 |
| 20260905184816 | 73 | 290 | 0.0 | 2.6 | 0.00 | 0.00 | 0.00 | 78 | 1018.8 |
| 20260905184316 | 74 | 288 | 1.7 | 2.6 | 0.00 | 0.00 | 0.00 | 78 | 1018.5 |
| 20260905183816 | 74 | 319 | 1.7 | 2.6 | 0.00 | 0.00 | 0.00 | 78 | 1018.4 |
| 20260905183316 | 74 | 323 | 0.9 | 2.6 | 0.00 | 0.00 | 0.00 | 78 | 1018.2 |
| 20260905182817 | 74 | 321 | 0.9 | 4.3 | 0.00 | 0.00 | 0.00 | 77 | 1018.2 |
| 20260905182316 | 75 | 322 | 1.7 | 4.3 | 0.00 | 0.00 | 0.00 | 76 | 1018.2 |
| 20260905181816 | 75 | 298 | 0.9 | 2.6 | 0.00 | 0.00 | 0.00 | 76 | 1018.1 |
| 20260905181316 | 76 | 295 | 1.7 | 2.6 | 0.00 | 0.00 | 0.00 | 76 | 1018.0 |
| 20260905180816 | 76 | 296 | 1.7 | 2.6 | 0.00 | 0.00 | 0.00 | 75 | 1018.0 |
| 20260905180316 | 76 | 282 | 0.9 | 5.2 | 0.00 | 0.00 | 0.00 | 74 | 1017.9 |
| 20260905175816 | 77 | 200 | 1.7 | 5.2 | 0.00 | 0.00 | 0.00 | 73 | 1017.9 |
| 20260905175316 | 76 | 191 | 1.7 | 5.2 | 0.00 | 0.00 | 0.00 | 72 | 1017.7 |
| 20260905174816 | 77 | 324 | 0.9 | 4.3 | 0.00 | 0.00 | 0.00 | 74 | 1017.6 |
| 20260905174316 | 78 | 324 | 1.7 | 4.3 | 0.00 | 0.00 | 0.00 | 72 | 1017.5 |
| 20260905173816 | 79 | 298 | 1.7 | 2.6 | 0.00 | 0.00 | 0.00 | 69 | 1017.5 |
| 20260905173316 | 80 | 167 | 1.7 | 6.1 | 0.00 | 0.00 | 0.00 | 67 | 1017.3 |
| 20260905172316 | 80 | 87 | 2.6 | 10.4 | 0.00 | 0.00 | 0.00 | 63 | 1017.3 |
| 20260905171816 | 81 | 139 | 5.2 | 10.4 | 0.00 | 0.00 | 0.00 | 62 | 1017.3 |
| 20260905171316 | 81 | 118 | 4.3 | 10.4 | 0.00 | 0.00 | 0.00 | 63 | 1017.1 |
| 20260905170316 | 81 | 137 | 7.0 | 14.8 | 0.00 | 0.00 | 0.00 | 62 | 1017.0 |
| 20260905165815 | 81 | 129 | 7.8 | 13.0 | 0.00 | 0.00 | 0.00 | 63 | 1016.9 |
| 20260905165316 | 81 | 130 | 7.0 | 13.0 | 0.00 | 0.00 | 0.00 | 63 | 1016.7 |
| 20260905164816 | 82 | 143 | 7.8 | 13.0 | 0.00 | 0.00 | 0.00 | 62 | 1016.6 |
| 20260905164317 | 82 | 169 | 6.1 | 13.0 | 0.00 | 0.00 | 0.00 | 60 | 1016.5 |
| 20260905163816 | 83 | 153 | 5.2 | 13.9 | 0.00 | 0.00 | 0.00 | 59 | 1016.3 |
| 20260905163316 | 83 | 133 | 7.8 | 13.9 | 0.00 | 0.00 | 0.00 | 58 | 1016.2 |
| 20260905162816 | 83 | 121 | 7.8 | 13.0 | 0.00 | 0.00 | 0.00 | 57 | 1016.2 |
| 20260905162316 | 83 | 160 | 7.8 | 13.0 | 0.00 | 0.00 | 0.00 | 57 | 1016.0 |
| 20260905161316 | 84 | 127 | 7.8 | 13.9 | 0.00 | 0.00 | 0.00 | 56 | 1015.9 |
| 20260905160316 | 85 | 131 | 7.0 | 13.9 | 0.00 | 0.00 | 0.00 | 54 | 1015.8 |
| 20260905155815 | 86 | 140 | 5.2 | 13.0 | 0.00 | 0.00 | 0.00 | 54 | 1015.7 |
| 20260905154815 | 86 | 124 | 5.2 | 12.2 | 0.00 | 0.00 | 0.00 | 53 | 1015.5 |
| 20260905154317 | 86 | 138 | 6.1 | 10.4 | 0.00 | 0.00 | 0.00 | 54 | 1015.5 |
| 20260905153816 | 87 | 79 | 0.9 | 2.6 | 0.00 | 0.00 | 0.00 | 53 | 1015.5 |
| 20260905153316 | 87 | 195 | 0.9 | 2.6 | 0.00 | 0.00 | 0.00 | 52 | 1015.4 |
| 20260905152815 | 87 | 209 | 0.9 | 2.6 | 0.00 | 0.00 | 0.00 | 52 | 1015.4 |
| 20260905152316 | 87 | 209 | 0.9 | 2.6 | 0.00 | 0.00 | 0.00 | 52 | 1015.5 |
| 20260905151316 | 87 | 187 | 0.9 | 4.3 | 0.00 | 0.00 | 0.00 | 49 | 1015.6 |
| 20260905150816 | 87 | 186 | 0.0 | 4.3 | 0.00 | 0.00 | 0.00 | 49 | 1015.5 |
| 20260905150316 | 87 | 186 | 2.6 | 4.3 | 0.00 | 0.00 | 0.00 | 50 | 1015.5 |
| 20260905145816 | 87 | 186 | 0.0 | 0.9 | 0.00 | 0.00 | 0.00 | 49 | 1015.5 |
| 20260905145316 | 87 | 186 | 0.0 | 1.7 | 0.00 | 0.00 | 0.00 | 49 | 1015.3 |
| 20260905144315 | 87 | 160 | 0.9 | 2.6 | 0.00 | 0.00 | 0.00 | 48 | 1015.3 |
| 20260905143816 | 87 | 160 | 1.7 | 4.3 | 0.00 | 0.00 | 0.00 | 48 | 1015.3 |
| 20260905143316 | 87 | 161 | 0.9 | 4.3 | 0.00 | 0.00 | 0.00 | 46 | 1015.1 |
| 20260905142816 | 87 | 161 | 2.6 | 4.3 | 0.00 | 0.00 | 0.00 | 47 | 1015.1 |
| 20260905142316 | 87 | 114 | 1.7 | 2.6 | 0.00 | 0.00 | 0.00 | 48 | 1015.2 |
| 20260905141816 | 87 | 228 | 0.9 | 2.6 | 0.00 | 0.00 | 0.00 | 46 | 1015.3 |
| 20260905141315 | 87 | 131 | 0.9 | 2.6 | 0.00 | 0.00 | 0.00 | 47 | 1015.4 |
| 20260905140816 | 87 | 130 | 1.7 | 5.2 | 0.00 | 0.00 | 0.00 | 46 | 1015.3 |
| 20260905135817 | 87 | 112 | 2.6 | 5.2 | 0.00 | 0.00 | 0.00 | 44 | 1015.3 |
| 20260905134816 | 87 | 164 | 4.3 | 5.2 | 0.00 | 0.00 | 0.00 | 46 | 1015.5 |
| 20260905133315 | 87 | 89 | 1.7 | 2.6 | 0.00 | 0.00 | 0.00 | 45 | 1015.4 |
| 20260905132816 | 87 | 119 | 1.7 | 6.1 | 0.00 | 0.00 | 0.00 | 46 | 1015.5 |
| 20260905132315 | 87 | 111 | 1.7 | 6.1 | 0.00 | 0.00 | 0.00 | 46 | 1015.4 |
| 20260905131815 | 87 | 133 | 2.6 | 6.1 | 0.00 | 0.00 | 0.00 | 45 | 1015.4 |
| 20260905131315 | 88 | 94 | 1.7 | 2.6 | 0.00 | 0.00 | 0.00 | 46 | 1015.4 |
| 20260905130315 | 88 | 109 | 1.7 | 6.1 | 0.00 | 0.00 | 0.00 | 44 | 1015.4 |
| 20260905125316 | 88 | 157 | 1.7 | 2.6 | 0.00 | 0.00 | 0.00 | 47 | 1015.5 |
| 20260905124816 | 87 | 130 | 0.9 | 5.2 | 0.00 | 0.00 | 0.00 | 49 | 1015.6 |
| 20260905124315 | 87 | 126 | 2.6 | 5.2 | 0.00 | 0.00 | 0.00 | 50 | 1015.7 |
| 20260905123815 | 87 | 109 | 0.9 | 4.3 | 0.00 | 0.00 | 0.00 | 51 | 1015.7 |
| 20260905123316 | 87 | 119 | 2.6 | 4.3 | 0.00 | 0.00 | 0.00 | 51 | 1015.8 |
| 20260905122315 | 87 | 110 | 0.9 | 2.6 | 0.00 | 0.00 | 0.00 | 53 | 1015.8 |
| 20260905121316 | 86 | 109 | 2.6 | 5.2 | 0.00 | 0.00 | 0.00 | 53 | 1015.9 |
| 20260905120815 | 86 | 150 | 0.9 | 1.7 | 0.00 | 0.00 | 0.00 | 56 | 1016.0 |
| 20260905120315 | 86 | 146 | 0.9 | 2.6 | 0.00 | 0.00 | 0.00 | 55 | 1016.0 |
| 20260905115816 | 86 | 144 | 1.7 | 2.6 | 0.00 | 0.00 | 0.00 | 58 | 1016.1 |
| 20260905115315 | 85 | 144 | 1.7 | 2.6 | 0.00 | 0.00 | 0.00 | 55 | 1016.0 |
| 20260905114316 | 85 | 144 | 0.9 | 2.6 | 0.00 | 0.00 | 0.00 | 60 | 1016.1 |
| 20260905113816 | 85 | 95 | 1.7 | 2.6 | 0.00 | 0.00 | 0.00 | 61 | 1016.1 |
| 20260905113316 | 85 | 94 | 1.7 | 2.6 | 0.00 | 0.00 | 0.00 | 61 | 1016.2 |
| 20260905112815 | 84 | 75 | 0.9 | 2.6 | 0.00 | 0.00 | 0.00 | 62 | 1016.2 |
| 20260905112316 | 84 | 68 | 1.7 | 2.6 | 0.00 | 0.00 | 0.00 | 62 | 1016.2 |
| 20260905111816 | 84 | 66 | 1.7 | 2.6 | 0.00 | 0.00 | 0.00 | 62 | 1016.2 |
| 20260905111316 | 83 | 94 | 0.9 | 2.6 | 0.00 | 0.00 | 0.00 | 63 | 1016.3 |
| 20260905110816 | 83 | 94 | 0.9 | 2.6 | 0.00 | 0.00 | 0.00 | 64 | 1016.2 |
| 20260905110316 | 83 | 84 | 1.7 | 2.6 | 0.00 | 0.00 | 0.00 | 65 | 1016.2 |
| 20260905105315 | 83 | 84 | 0.9 | 2.6 | 0.00 | 0.00 | 0.00 | 67 | 1016.3 |
| 20260905104815 | 82 | 167 | 1.7 | 6.1 | 0.00 | 0.00 | 0.00 | 68 | 1016.3 |
| 20260905104316 | 82 | 166 | 1.7 | 6.1 | 0.00 | 0.00 | 0.00 | 69 | 1016.4 |
| 20260905103815 | 82 | 162 | 2.6 | 6.1 | 0.00 | 0.00 | 0.00 | 69 | 1016.4 |
| 20260905103315 | 82 | 94 | 1.7 | 2.6 | 0.00 | 0.00 | 0.00 | 70 | 1016.5 |
| 20260905102815 | 81 | 114 | 1.7 | 2.6 | 0.00 | 0.00 | 0.00 | 72 | 1016.5 |
| 20260905101815 | 80 | 115 | 0.9 | 2.6 | 0.00 | 0.00 | 0.00 | 73 | 1016.6 |
| 20260905101315 | 79 | 116 | 0.9 | 2.6 | 0.00 | 0.00 | 0.00 | 74 | 1016.6 |
| 20260905100816 | 79 | 115 | 0.9 | 2.6 | 0.00 | 0.00 | 0.00 | 75 | 1016.5 |
| 20260905100315 | 78 | 113 | 0.9 | 2.6 | 0.00 | 0.00 | 0.00 | 75 | 1016.5 |
| 20260905095815 | 78 | 113 | 0.9 | 2.6 | 0.00 | 0.00 | 0.00 | 77 | 1016.6 |
| 20260905095315 | 77 | 113 | 1.7 | 2.6 | 0.00 | 0.00 | 0.00 | 76 | 1016.7 |
| 20260905094815 | 77 | 113 | 1.7 | 2.6 | 0.00 | 0.00 | 0.00 | 76 | 1016.8 |
| 20260905093816 | 77 | 113 | 1.7 | 2.6 | 0.00 | 0.00 | 0.00 | 76 | 1016.7 |
| 20260905093315 | 76 | 105 | 0.9 | 2.6 | 0.00 | 0.00 | 0.00 | 77 | 1016.6 |
| 20260905092315 | 76 | 105 | 1.7 | 2.6 | 0.00 | 0.00 | 0.00 | 79 | 1016.7 |
| 20260905091815 | 76 | 105 | 0.9 | 2.6 | 0.00 | 0.00 | 0.00 | 78 | 1016.6 |
| 20260905091315 | 76 | 105 | 0.9 | 2.6 | 0.00 | 0.00 | 0.00 | 78 | 1016.7 |
| 20260905085314 | 75 | 105 | 0.9 | 1.7 | 0.00 | 0.00 | 0.00 | 80 | 1016.8 |
| 20260905084815 | 74 | 105 | 0.0 | 1.7 | 0.00 | 0.00 | 0.00 | 79 | 1016.8 |
| 20260905084314 | 74 | 105 | 0.9 | 1.7 | 0.00 | 0.00 | 0.00 | 79 | 1016.7 |
| 20260905083315 | 74 | 105 | 0.9 | 1.7 | 0.00 | 0.00 | 0.00 | 79 | 1016.8 |
| 20260905082315 | 74 | 105 | 0.9 | 1.7 | 0.00 | 0.00 | 0.00 | 79 | 1016.8 |
| 20260905081815 | 74 | 105 | 0.9 | 2.6 | 0.00 | 0.00 | 0.00 | 79 | 1016.7 |
| 20260905081315 | 74 | 105 | 0.9 | 2.6 | 0.00 | 0.00 | 0.00 | 81 | 1016.6 |
| 20260905080815 | 73 | 105 | 0.9 | 2.6 | 0.00 | 0.00 | 0.00 | 81 | 1016.4 |
| 20260905075815 | 73 | 105 | 0.9 | 1.7 | 0.00 | 0.00 | 0.00 | 81 | 1016.5 |
| 20260905075315 | 73 | 105 | 0.9 | 1.7 | 0.00 | 0.00 | 0.00 | 81 | 1016.5 |
| 20260905074816 | 73 | 104 | 0.9 | 1.7 | 0.00 | 0.00 | 0.00 | 81 | 1016.5 |
| 20260905074315 | 73 | 104 | 0.9 | 2.6 | 0.00 | 0.00 | 0.00 | 81 | 1016.6 |
| 20260905073815 | 73 | 105 | 0.9 | 2.6 | 0.00 | 0.00 | 0.00 | 82 | 1016.6 |
| 20260905073315 | 73 | 105 | 1.7 | 2.6 | 0.00 | 0.00 | 0.00 | 81 | 1016.6 |
| 20260905072815 | 72 | 82 | 0.9 | 2.6 | 0.00 | 0.00 | 0.00 | 84 | 1016.6 |
| 20260905071315 | 70 | 82 | 0.9 | 1.7 | 0.00 | 0.00 | 0.00 | 87 | 1016.6 |
| 20260905070315 | 68 | 82 | 0.9 | 1.7 | 0.00 | 0.00 | 0.00 | 90 | 1016.5 |
| 20260905065314 | 67 | 95 | 0.0 | 2.6 | 0.00 | 0.00 | 0.00 | 91 | 1016.4 |
| 20260905064815 | 66 | 98 | 0.9 | 2.6 | 0.00 | 0.00 | 0.00 | 92 | 1016.4 |